RH
77 78 78 80 82 85 89 93 97 101 102 103 103 103 103 103 102 101 101 99 98 98 97 95 93 92 91 90 89 89 89 89 89 89 89 88 88 89 90 90 92 93 94 96 97 97 95 92 90 89 88 87 85 83 82 81 82 84 85 84 83 81 80 79 76 68 61 58 56 55 55 56 56 53 52 51 48 45 43 39 35 31 29 26 24
73 75 76 78 79 80 81 82 84 86 89 90 91 91 91 90 89 87 86 85 83 81 79 77 75 74 73 73 74 75 76 76 77 76 75 74 74 75 77 79 82 84 86 89 91 93 93 92 91 90 89 88 86 85 86 86 87 88 87 87 85 84 84 85 83 77 69 62 58 57 57 59 62 60 58 60 58 55 51 47 43 39 36 33 30
80 83 85 87 89 91 91 90 89 87 85 83 80 77 75 73 72 70 69 69 69 70 70 71 73 73 75 76 78 79 79 80 81 82 81 81 80 80 81 81 83 85 87 89 91 93 94 94 94 94 94 94 93 92 92 91 90 90 89 88 88 89 90 93 95 92 85 76 68 64 63 65 68 67 64 64 64 61 58 55 52 49 46 44 41
71 73 76 79 83 87 91 95 98 100 100 100 97 95 92 89 87 85 84 84 84 85 86 86 87 88 89 90 91 91 92 92 92 93 93 93 93 93 94 93 93 94 95 96 98 98 99 99 99 100 101 101 100 99 98 98 97 97 96 95 95 95 96 97 99 98 95 88 80 74 72 72 73 72 69 67 66 65 63 60 58 56 52 50 48
37 38 40 42 45 49 54 59 65 72 79 85 90 95 99 102 103 102 101 100 99 99 98 97 98 99 99 99 99 99 100 99 99 100 100 100 100 100 101 101 101 101 102 102 102 102 102 102 102 103 104 103 102 101 101 101 101 100 100 100 99 100 100 99 98 98 97 93 87 81 77 75 75 75 74 72 70 68 66 64 62 61 58 55 53
21 21 21 22 22 23 25 27 30 34 38 43 49 55 64 72 82 90 95 98 100 102 103 102 101 102 101 101 101 101 101 102 101 101 101 101 101 101 101 102 102 102 102 102 102 102 102 101 101 102 101 101 100 100 100 100 100 100 101 101 100 101 102 100 99 99 97 94 90 85 80 77 76 77 76 76 75 72 68 67 66 66 66 64 60
19 19 19 20 20 20 20 21 22 24 26 29 31 33 36 40 47 56 64 72 79 85 91 96 99 101 101 101 101 101 101 101 101 101 101 100 100 100 100 100 100 100 100 100 100 100 101 101 101 101 100 101 101 100 101 101 100 101 100 101 101 100 101 101 100 100 98 94 91 88 84 81 79 79 79 79 78 74 71 73 75 74 73 71 68
20 20 20 20 20 20 21 22 22 24 26 29 32 34 36 37 39 43 48 53 59 65 72 79 85 91 96 97 99 100 101 101 100 100 100 100 100 101 100 100 100 100 100 100 100 100 100 100 100 100 100 100 100 100 100 100 100 101 100 100 101 101 100 100 100 100 98 95 94 92 90 88 84 83 83 82 82 81 80 84 85 81 77 76 75
20 20 19 19 20 20 20 21 22 24 26 28 32 34 37 39 41 44 47 50 54 58 63 68 74 81 87 92 95 98 101 102 101 101 100 100 100 100 100 100 100 100 100 100 100 100 101 100 100 100 101 101 101 101 100 101 101 101 100 100 101 101 101 100 100 100 99 98 98 96 94 94 91 90 90 89 91 92 91 91 91 87 84 83 81
21 20 20 20 21 21 22 22 23 24 26 28 30 32 35 37 39 42 44 46 49 52 56 60 66 71 78 84 90 95 100 102 102 102 101 100 101 101 101 101 100 101 101 101 100 100 100 100 100 100 100 101 101 100 100 100 100 100 100 99 100 100 101 101 100 99 99 100 100 100 99 99 96 96 96 95 96 97 95 93 93 91 87 85 82
21 21 20 21 21 22 23 24 25 26 26 27 28 29 30 32 33 35 37 38 40 42 44 47 51 56 61 68 76 84 93 99 103 105 103 101 102 102 102 101 100 100 100 100 101 100 100 101 101 101 102 102 101 101 101 102 101 101 100 100 101 101 100 101 101 100 98 98 100 101 102 100 97 96 96 94 93 94 91 87 85 81 76 72 67
22 22 22 23 23 24 24 25 25 25 25 25 25 25 26 26 26 27 28 29 30 31 32 33 35 37 40 43 49 55 63 72 81 89 94 98 101 103 103 102 102 102 102 102 101 100 100 100 99 100 100 99 99 99 100 100 99 99 100 99 100 101 101 102 102 101 99 98 98 98 96 94 91 85 81 78 77 74 68 59 53 48 42 37 34
23 23 23 24 24 24 24 23 23 22 21 20 19 19 18 18 18 18 18 19 19 19 20 20 21 22 22 24 25 27 29 34 39 46 53 60 68 74 78 80 83 87 92 96 98 100 103 104 103 103 104 104 103 103 104 104 103 102 103 102 102 102 100 98 95 92 88 84 80 73 66 61 56 49 43 41 40 37 32 26 21 19 18 15 14
24 24 24 23 22 22 20 19 17 16 15 14 13 13 13 12 12 11 11 11 11 11 11 11 12 12 12 13 13 14 14 15 16 18 20 22 26 30 32 35 38 42 47 53 58 63 68 71 74 76 78 79 79 79 79 78 76 75 74 72 70 68 64 59 56 53 49 43 38 32 26 23 21 18 16 16 17 16 15 15 14 14 14 14 14
24 23 21 20 18 16 14 13 12 11 10 9 9 8 8 8 7 7 7 7 7 7 7 8 8 8 8 9 9 10 11 11 12 13 13 14 14 15 15 15 16 17 17 19 21 22 23 25 27 28 29 29 30 29 29 29 28 28 28 26 25 24 22 21 20 19 18 16 15 15 14 14 14 14 14 14 15 16 16 17 17 16 17 17 17
20 18 16 14 12 10 9 9 8 7 7 7 6 6 6 6 6 6 6 6 7 7 7 7 8 8 8 8 8 9 10 11 12 13 14 15 15 15 15 15 15 15 15 15 16 16 16 16 15 15 15 15 15 15 15 15 15 15 15 15 15 15 15 15 15 15 16 15 16 16 16 17 18 18 19 19 19 20 20 19 18 18 19 18 17
14 12 10 8 7 7 6 6 6 6 6 6 6 6 6 6 7 7 7 8 8 8 8 8 9 9 9 10 10 10 11 12 14 15 16 17 18 18 18 17 18 18 18 19 20 19 19 19 19 19 18 18 18 18 19 19 19 19 19 18 18 18 18 18 18 19 19 19 19 20 20 20 21 21 22 22 21 22 21 20 19 18 18 18 17
9 7 7 6 5 5 5 5 6 6 6 7 7 7 7 8 8 9 9 10 10 10 10 11 11 11 11 12 12 12 12 14 15 17 18 20 20 20 20 20 20 21 22 23 24 24 24 24 24 24 23 22 23 23 24 24 24 24 24 22 22 21 21 21 21 21 21 21 21 21 21 21 21 21 21 22 23 23 24 23 21 19 18 17 16
6 5 5 5 5 6 6 6 7 7 7 8 8 8 9 9 10 10 11 12 12 12 13 13 13 14 14 14 14 14 14 15 16 18 19 21 23 23 22 22 22 23 24 25 26 27 27 27 27 28 27 27 27 27 27 27 27 27 26 24 23 23 22 22 22 21 20 20 19 19 19 19 19 19 19 20 21 23 25 26 25 24 22 20 18
5 5 6 7 7 8 8 9 9 9 10 10 10 11 11 11 12 12 13 13 14 14 15 15 15 15 16 16 16 16 17 17 18 19 20 22 24 24 23 23 23 24 25 26 26 27 28 29 29 29 29 28 27 27 27 27 26 25 24 22 22 21 20 19 18 18 17 16 16 16 16 16 17 18 18 19 20 23 28 30 31 30 29 28 27
7 8 8 9 9 9 10 10 11 11 11 12 12 13 13 13 14 14 14 15 15 16 16 16 17 17 17 18 18 18 19 19 20 21 22 24 25 25 24 24 24 24 24 23 24 24 25 26 26 25 25 24 23 23 23 23 22 20 19 19 18 17 16 16 15 15 15 15 14 14 14 15 17 18 20 21 23 26 32 35 36 36 38 41 41
9 9 9 9 10 10 10 11 11 12 12 13 13 14 14 15 15 16 16 17 17 18 18 18 19 19 19 20 20 21 21 22 22 23 24 25 26 26 26 25 24 24 23 22 23 23 23 24 23 23 22 21 20 21 21 20 19 19 19 19 18 18 17 17 16 16 16 16 16 16 17 18 20 22 24 27 30 34 39 42 44 46 49 52 50
9 10 10 10 11 11 12 13 13 13 14 14 15 15 16 16 17 17 17 17 18 18 18 19 19 20 20 21 21 22 22 22 23 24 24 25 26 26 26 25 24 23 22 21 22 22 22 21 21 21 21 21 22 23 22 23 24 25 26 25 25 25 24 23 22 22 21 21 20 21 23 25 27 29 31 34 38 40 43 46 49 56 62 64 58
11 12 13 14 15 15 16 17 17 18 18 18 18 19 19 19 20 19 20 20 20 20 20 20 20 19 20 20 20 21 21 21 21 22 21 22 23 23 23 23 22 21 20 20 21 21 21 23 25 27 28 29 30 30 31 33 34 34 34 34 35 36 34 32 30 28 27 26 26 26 29 32 34 34 35 38 42 45 50 53 59 69 75 73 65
17 19 20 21 22 23 24 26 26 27 28 28 27 28 28 28 27 27 27 26 26 25 25 24 24 24 24 24 24 24 24 24 24 24 24 24 24 24 25 25 25 25 24 25 28 29 30 33 38 41 42 40 40 41 42 43 42 39 39 40 42 43 42 40 38 35 32 31 30 29 32 35 39 42 45 50 55 60 68 73 76 81 82 73 62
23 25 27 29 30 31 33 34 36 37 38 39 39 40 41 41 41 40 40 38 37 35 33 32 32 31 31 31 32 32 34 34 35 34 34 34 34 35 35 35 36 38 38 38 40 41 44 48 51 53 54 53 53 53 52 52 51 47 46 47 49 50 49 47 43 38 34 32 32 35 41 49 56 62 67 70 72 74 79 81 80 81 80 70 57
28 30 32 33 35 36 37 38 39 41 42 43 44 46 47 49 50 50 51 50 49 48 46 45 43 41 39 38 38 39 40 42 43 43 42 42 43 44 44 43 45 47 48 49 51 54 57 60 61 63 64 65 63 61 59 60 59 56 56 58 59 58 55 48 41 36 37 40 46 54 62 68 72 75 77 76 76 77 80 79 75 75 74 66 55
31 32 34 35 36 37 38 39 41 43 44 46 47 49 50 52 53 54 55 54 54 54 54 55 55 53 52 50 48 48 48 49 50 48 46 46 47 50 51 50 52 57 59 61 66 69 68 67 70 73 74 72 69 68 67 67 66 63 64 69 70 64 55 45 40 42 51 59 66 72 77 78 76 75 76 76 77 80 83 79 73 70 68 63 56
32 33 34 34 34 34 35 36 37 38 40 42 45 48 51 55 57 59 62 62 60 58 57 58 59 59 59 60 60 60 62 64 64 59 55 54 55 57 59 60 64 69 69 71 79 83 80 77 79 82 81 77 74 73 73 73 71 69 73 77 73 62 52 48 52 60 67 71 73 76 79 80 79 81 82 83 85 86 86 82 76 71 70 68 64
31 30 29 29 29 29 29 30 31 32 32 34 36 39 43 48 51 55 60 64 67 68 66 64 63 62 61 63 66 68 72 78 81 78 72 69 68 69 72 76 79 79 79 83 90 91 88 88 89 87 84 80 78 79 80 78 77 79 82 79 69 59 59 64 70 75 76 75 75 78 81 84 87 91 92 90 90 90 88 86 83 79 78 75 72
26 26 26 27 28 29 30 31 32 33 34 34 35 36 38 42 45 47 50 53 58 63 66 68 69 67 66 66 70 74 79 83 87 89 86 83 82 84 87 89 88 86 86 91 96 93 90 91 92 89 85 82 83 86 85 81 83 87 86 77 67 65 72 78 81 81 80 81 83 86 88 91 95 99 98 93 91 91 91 89 87 84 82 80 82
26 27 28 29 30 32 33 34 35 36 37 38 39 40 40 42 43 45 47 47 48 50 53 57 61 63 64 65 69 77 85 90 91 92 92 92 92 93 94 95 97 95 90 90 93 94 92 91 91 89 86 85 89 91 86 85 90 91 85 78 75 78 82 84 84 85 87 91 95 96 96 98 102 105 103 96 91 92 94 94 92 89 88 91 96
27 28 30 31 32 33 35 35 36 37 38 39 40 41 43 43 44 46 49 50 49 48 46 47 49 51 54 56 60 67 81 94 99 98 96 95 94 95 99 102 103 99 91 88 92 95 90 87 87 87 87 91 94 92 88 90 95 91 85 84 87 87 86 84 86 91 97 102 104 103 101 103 105 106 103 97 94 96 101 102 100 98 98 102 105
30 31 32 32 32 32 32 33 34 35 37 38 39 40 42 43 43 44 47 50 52 53 50 48 46 47 47 49 51 55 67 82 94 99 100 97 94 97 105 108 105 99 92 89 89 87 83 83 84 85 90 96 95 91 91 96 97 93 90 92 93 90 87 87 92 100 106 109 108 105 105 106 105 103 102 101 101 104 108 107 106 105 105 107 109
34 34 33 32 31 32 33 34 36 38 40 41 42 44 45 46 46 46 47 48 52 55 56 53 50 48 48 47 48 50 54 62 71 81 88 89 89 97 106 105 97 92 87 81 77 75 77 80 81 85 94 98 94 92 98 102 98 94 95 96 94 90 90 94 100 105 110 110 107 104 104 104 102 102 103 103 104 106 109 109 109 109 109 110 111
36 35 33 33 33 35 37 39 40 42 43 45 46 48 49 51 52 52 52 53 55 59 61 61 58 54 51 50 50 50 50 50 53 60 66 69 74 85 92 87 80 78 76 70 68 71 76 79 82 90 96 96 92 97 104 104 99 98 99 98 95 92 95 101 105 108 109 108 103 99 98 98 99 100 102 103 103 105 108 109 108 108 108 108 108
35 32 32 33 36 38 39 39 39 40 41 42 44 46 48 51 52 53 55 58 60 64 67 69 68 64 61 58 55 53 51 50 50 52 55 59 63 68 71 69 68 70 69 66 67 71 75 80 88 96 96 92 95 104 107 104 102 103 103 100 97 97 100 104 105 107 109 106 99 95 95 96 97 99 101 101 102 104 106 105 103 102 103 104 103
33 32 33 35 37 37 36 35 35 35 36 38 40 43 45 48 49 51 53 55 58 62 67 70 72 73 72 68 63 60 58 56 54 54 56 58 58 59 60 63 65 67 68 68 69 72 76 85 94 97 94 94 101 107 106 104 106 107 105 102 100 100 102 102 103 106 109 105 98 95 94 95 96 97 98 99 101 101 101 100 98 98 99 101 101
34 36 38 38 36 34 32 31 31 32 34 36 39 41 44 47 49 51 53 53 54 56 59 64 69 74 78 76 71 68 66 64 62 61 61 61 60 60 61 63 64 67 69 70 70 74 82 91 95 93 93 99 107 108 106 107 108 108 107 103 99 99 100 99 100 106 110 108 102 97 93 93 94 94 94 97 100 99 98 97 98 98 100 101 101
38 41 42 40 36 32 29 28 28 30 32 34 38 41 45 48 51 52 53 53 52 51 53 57 63 69 74 77 76 74 72 70 68 66 65 64 64 63 63 64 67 70 71 70 73 82 91 93 90 90 96 105 110 109 108 110 111 111 107 101 96 97 98 97 99 106 109 106 102 98 94 93 94 93 93 95 97 97 96 97 98 99 99 99 99
42 45 45 41 36 32 29 28 28 30 32 35 38 42 46 49 52 53 53 52 51 49 50 53 58 63 67 72 74 73 71 71 71 70 69 68 67 67 67 69 70 69 70 74 82 89 91 89 89 93 99 103 105 107 111 114 114 110 103 96 94 97 98 98 101 107 108 106 103 101 99 98 96 95 94 94 95 96 96 97 98 99 99 99 100
45 48 48 44 38 33 30 29 30 32 34 37 41 44 47 49 50 51 51 50 49 49 50 52 56 60 63 67 71 72 72 73 74 73 72 70 70 71 71 70 70 73 79 85 88 88 86 87 92 97 98 99 102 106 110 112 109 102 96 94 96 100 102 102 104 107 110 111 110 109 109 108 106 102 98 95 94 95 95 97 99 101 101 101 101
49 51 52 50 44 38 34 32 33 35 37 40 43 45 46 47 47 48 49 49 48 49 51 53 56 59 63 67 70 71 73 74 75 75 74 73 72 72 74 76 80 84 86 85 83 83 87 95 100 102 101 101 103 105 106 104 101 96 94 94 96 99 102 105 108 111 112 112 112 112 112 111 107 102 99 96 95 94 94 96 99 101 101 101 100
54 55 57 57 55 50 45 40 38 37 38 40 42 43 44 45 46 46 46 47 47 49 51 54 58 62 65 68 70 72 74 76 76 76 75 75 76 79 83 85 85 83 81 80 85 93 100 105 107 107 106 105 103 102 100 97 95 93 92 93 96 101 105 108 111 115 115 114 113 112 110 105 101 99 99 100 99 97 96 96 98 99 101 101 101
60 61 62 64 64 63 61 56 52 50 47 45 45 45 45 45 46 47 48 49 51 54 57 61 64 67 70 72 74 77 79 80 80 80 81 83 85 87 86 83 81 82 85 91 99 104 107 107 107 106 105 104 102 100 98 96 96 97 98 99 102 106 106 104 105 108 111 110 108 106 104 101 100 101 103 103 102 100 99 100 100 101 101 101 100
63 65 67 68 69 70 71 70 69 68 66 63 62 60 60 59 60 61 62 63 65 68 70 72 74 76 78 80 81 83 84 85 85 86 85 85 83 83 83 85 90 96 101 105 107 107 106 105 104 103 103 102 101 100 101 102 103 103 103 103 103 103 102 100 100 102 103 103 103 102 101 100 101 101 101 101 101 101 100 101 101 101 103 105 105
59 62 65 68 70 72 74 75 77 77 78 78 78 77 77 77 77 78 78 79 80 80 81 82 83 84 85 85 86 86 85 84 82 81 82 84 87 92 97 102 105 106 106 106 105 104 103 103 103 103 103 103 103 103 104 104 103 102 101 102 101 100 100 101 101 100 101 101 102 102 101 101 101 102 103 105 105 103 102 101 101 102 104 105 106
52 54 56 59 63 67 70 73 75 77 78 80 81 82 82 83 84 84 84 84 84 84 84 84 84 83 82 81 80 79 80 81 85 90 95 100 104 106 106 106 105 105 105 106 107 107 108 108 107 105 103 102 102 101 101 101 101 100 101 101 100 101 103 103 102 101 102 103 102 101 100 101 101 102 104 106 105 102 102 104 105 106 106 104 102
47 48 49 51 54 56 60 63 67 70 72 74 75 77 78 78 79 79 79 79 79 78 77 76 75 75 76 78 82 86 92 98 102 105 107 107 107 107 107 108 108 109 110 110 109 109 108 106 103 101 100 100 100 100 100 101 101 101 101 101 101 102 104 104 102 101 101 101 101 100 101 101 101 101 102 102 101 100 101 102 102 102 100 96 96
45 45 46 48 49 50 53 55 57 60 62 64 66 68 69 70 70 70 70 70 70 69 70 73 76 81 86 92 97 102 105 106 107 108 109 109 110 111 111 110 108 107 106 105 104 103 101 100 100 100 100 100 100 100 100 100 100 101 100 100 100 101 102 101 101 101 101 101 101 101 101 101 101 101 101 101 100 100 101 101 97 91 84 81 88
47 48 49 50 51 52 53 54 56 58 60 61 62 62 63 64 64 64 65 67 70 74 79 85 91 96 101 104 107 108 109 111 114 115 113 110 108 108 106 104 102 102 101 101 100 100 100 100 100 100 100 100 100 101 102 102 101 101 101 101 101 101 101 101 101 102 101 101 101 101 101 101 101 100 100 100 100 100 102 102 95 83 72 74 88
Wind_Speed
61 62 62 63 64 65 66 67 69 71 73 75 77 78 80 81 82 84 84 85 86 87 88 88 88 88 88 88 89 89 89 89 90 90 91 92 93 93 94 95 96 97 98 98 98 99 99 98 98 99 99 100 100 101 102 103 104 105 106 106 106 106 107 108 109 107 103 101 100 101 102 103 104 104 104 105 104 104 103 103 102 102 101 101 100
61 61 62 63 64 64 65 66 68 70 71 73 75 77 78 80 81 83 83 84 85 86 87 88 88 89 89 90 90 90 91 91 91 92 92 93 94 95 96 96 97 98 99 99 100 100 100 100 100 101 102 102 103 104 104 105 106 107 107 107 108 108 109 111 112 112 109 106 104 103 104 105 107 107 107 107 107 106 105 105 105 104 104 103 103
62 62 63 64 65 66 67 68 69 71 72 74 75 77 79 80 82 83 84 85 86 88 88 89 90 91 92 92 93 93 94 94 94 95 95 95 96 96 97 97 98 99 100 101 101 102 103 103 103 103 104 105 105 106 107 107 108 109 109 109 110 111 111 113 115 116 115 112 109 107 107 108 110 110 109 109 109 109 108 108 107 107 107 107 107
62 63 64 65 66 67 68 69 70 72 73 75 76 78 80 82 83 84 86 87 88 90 91 91 92 93 94 95 95 96 96 97 97 97 98 98 98 98 99 99 100 100 101 102 103 104 105 105 105 106 107 107 107 108 108 109 110 111 111 112 113 114 115 115 117 118 119 118 115 113 112 112 113 113 112 111 111 111 110 110 111 111 110 110 110
64 65 66 67 68 69 70 71 72 73 74 76 77 78 80 82 83 85 87 88 89 91 92 93 94 95 96 97 97 98 98 99 99 99 99 100 100 100 101 101 102 102 103 104 105 106 107 107 107 108 109 109 109 110 110 111 112 113 114 115 116 117 118 119 119 121 122 122 120 118 116 116 115 115 114 113 113 113 113 113 114 114 114 114 114
68 69 70 72 73 73 74 75 76 77 78 79 80 81 82 83 85 86 87 89 90 92 93 94 95 96 97 98 99 100 100 100 101 101 101 101 102 102 102 103 104 105 105 106 107 108 109 109 110 110 111 112 112 112 113 113 114 115 116 117 118 120 121 122 122 123 123 123 123 121 119 117 116 115 115 115 116 116 116 116 116 117 117 117 117
73 74 75 77 78 79 80 81 82 83 84 85 86 86 87 88 88 89 90 91 92 93 94 95 96 97 98 99 100 101 101 102 102 103 103 103 103 104 104 105 106 106 107 108 110 110 111 112 112 113 114 114 115 115 115 116 117 118 119 120 121 122 123 123 124 124 124 124 123 121 119 118 117 117 117 118 118 119 118 118 119 119 119 120 120
77 79 80 81 83 84 85 86 87 88 89 90 91 92 93 93 94 94 95 95 96 97 97 98 99 99 100 101 102 102 103 103 104 105 105 106 106 106 107 107 108 108 109 110 112 113 114 114 115 115 116 116 117 118 118 119 120 121 122 123 123 124 124 124 124 123 123 122 121 121 120 120 120 120 120 121 121 120 120 121 121 122 122 122 122
82 84 85 86 87 88 89 90 91 92 92 94 95 96 97 98 98 99 100 100 101 101 101 102 102 102 103 103 104 104 105 105 106 107 107 108 109 109 110 110 110 111 112 112 113 114 116 116 117 118 118 119 120 121 122 123 124 124 124 125 125 125 124 124 123 122 122 122 122 122 122 122 122 122 122 123 122 122 122 122 123 123 124 123 123
86 88 89 90 91 92 93 94 95 95 96 97 98 99 100 100 101 102 103 104 104 105 106 106 106 107 107 107 107 107 107 108 108 109 109 110 111 111 112 112 113 113 114 114 115 116 117 118 119 119 121 122 123 123 124 124 124 124 124 124 123 123 123 123 123 123 123 123 123 123 123 124 124 124 124 124 123 123 123 123 123 123 124 123 123
91 92 93 94 95 95 96 97 98 98 99 100 101 102 103 103 104 105 106 106 107 108 108 109 110 110 111 111 111 111 111 111 111 112 112 113 113 114 114 114 114 114 115 115 115 116 117 117 118 119 120 121 122 122 122 122 122 123 123 122 122 123 123 124 124 124 124 124 125 125 125 125 125 125 125 124 124 123 123 123 123 123 123 122 122
95 96 97 97 98 98 99 100 101 101 102 103 104 105 106 107 108 109 109 110 110 111 111 112 112 112 113 113 113 113 114 114 114 115 115 116 116 117 117 117 117 117 117 117 117 117 117 118 118 119 119 120 120 121 121 121 122 122 122 123 123 123 124 125 125 126 126 126 126 125 125 125 125 125 124 124 123 123 122 121 121 120 119 117 116
99 100 100 101 101 101 102 103 104 104 105 106 107 108 109 110 111 112 113 113 114 114 114 114 114 114 114 113 113 113 113 114 114 115 116 116 117 118 119 119 118 118 119 119 119 120 120 120 120 121 121 121 122 122 122 123 123 123 124 124 124 124 125 125 125 125 125 125 125 124 123 123 122 121 120 120 119 117 116 115 113 112 110 109 107
102 103 103 103 103 104 105 106 107 107 109 109 110 111 112 112 113 114 114 114 114 114 114 113 113 113 113 112 112 111 111 112 112 113 113 114 115 116 117 117 116 117 117 118 118 119 120 120 120 120 121 121 122 122 122 122 123 123 123 123 122 122 122 121 121 121 120 120 119 118 117 116 115 113 111 110 109 108 107 105 104 103 102 102 101
104 105 105 105 106 107 108 108 109 110 110 111 111 111 112 112 112 111 111 111 110 110 109 109 108 108 108 108 107 107 107 107 108 108 109 110 111 112 112 112 112 112 112 113 114 114 115 115 115 115 115 115 116 116 116 116 116 115 115 115 115 114 113 112 111 110 110 109 109 107 106 105 104 103 102 101 100 100 99 98 98 98 99 99 98
107 107 108 108 109 109 110 110 110 111 111 111 110 110 110 109 108 108 107 106 105 104 103 103 102 102 102 102 101 101 101 101 102 102 103 104 105 106 106 106 106 106 106 106 107 107 107 108 108 107 107 107 106 106 106 106 106 106 106 106 105 104 102 101 101 100 100 99 99 98 98 98 97 97 96 96 96 96 96 96 96 96 96 96 96
109 109 110 110 110 111 111 110 110 109 109 108 108 107 107 106 105 105 104 103 102 101 100 99 98 98 97 97 97 96 96 96 97 98 98 99 100 101 100 100 100 100 100 100 100 100 101 101 101 101 100 99 98 97 97 98 99 99 99 99 98 97 96 95 95 94 94 93 93 93 94 94 93 93 93 93 93 93 94 95 95 94 94 94 94
111 111 110 110 110 110 109 109 108 107 106 105 105 104 103 103 102 102 101 100 99 98 97 96 95 95 94 94 93 93 92 92 93 94 94 95 96 97 96 96 96 96 96 96 96 96 95 95 95 96 95 94 92 92 93 94 95 95 96 97 96 94 93 92 92 91 90 90 90 90 91 91 90 90 89 89 88 88 89 90 91 91 91 91 91
110 110 109 108 107 106 105 104 103 102 101 100 100 99 98 98 97 97 96 96 95 94 94 93 92 92 92 91 91 91 90 90 90 91 91 92 93 94 93 93 92 92 92 92 92 92 91 91 91 91 91 90 89 89 89 90 91 93 94 94 92 91 90 90 90 89 88 87 87 87 87 87 87 87 86 85 84 83 83 84 84 85 86 86 86
107 106 104 103 102 100 99 98 97 96 95 94 94 93 93 92 92 92 92 92 91 91 91 90 90 89 89 89 89 89 88 88 88 88 89 89 90 91 91 90 90 89 89 89 89 88 88 88 88 87 87 87 86 86 86 87 89 91 91 89 87 87 88 87 86 84 84 84 84 83 83 82 83 83 82 81 79 78 78 78 78 79 79 79 78
102 100 98 97 96 95 94 93 92 91 90 90 89 88 88 88 88 87 87 87 87 87 87 87 86 86 86 86 86 86 86 86 86 86 86 86 88 89 89 88 88 88 87 87 86 85 85 85 85 84 84 84 83 82 82 84 86 86 84 82 82 83 83 81 79 78 78 78 77 77 76 75 75 75 75 74 73 72 71 71 71 72 72 71 71
95 93 92 90 89 88 87 86 85 84 84 84 83 83 83 83 83 83 83 82 82 82 82 82 82 82 82 82 82 82 82 83 82 82 82 83 84 85 86 85 85 85 84 83 82 82 81 81 81 80 80 79 78 77 77 78 78 77 75 74 75 75 74 72 70 69 69 68 68 67 66 66 65 65 65 65 64 63 63 63 64 64 64 64 65
86 84 82 81 80 79 78 77 76 76 75 75 75 75 75 75 75 76 76 76 76 76 76 76 76 76 76 76 76 77 77 77 77 77 78 78 78 79 80 80 80 80 79 77 76 76 75 75 74 73 71 70 69 68 69 68 67 65 65 66 66 65 64 63 61 60 59 58 57 57 57 57 57 57 57 56 56 55 56 56 57 56 57 58 60
76 74 73 72 71 71 70 69 69 68 68 67 67 67 67 67 67 67 68 68 68 68 68 69 69 69 69 69 69 70 70 71 71 71 71 72 72 72 73 73 73 73 71 69 68 67 66 65 64 62 60 59 59 60 59 59 58 58 58 58 58 58 57 55 54 53 52 51 51 51 51 52 52 51 51 51 50 50 50 51 51 50 51 53 54
70 69 68 67 67 66 66 66 65 65 65 64 64 63 63 63 63 62 62 62 62 61 61 61 61 61 60 60 60 61 61 62 62 62 63 63 63 63 63 62 62 62 61 58 57 56 56 55 53 53 52 52 53 54 53 53 54 54 54 54 53 53 52 50 50 49 48 47 47 47 46 45 45 44 44 44 44 44 45 46 47 47 48 49 49
68 67 67 66 66 66 66 65 65 65 65 65 64 63 63 63 62 62 61 61 60 59 58 58 57 56 55 55 54 54 54 54 54 54 54 54 54 54 54 53 52 52 52 51 49 49 49 49 49 49 49 50 50 51 51 51 51 51 51 50 50 49 47 47 46 46 44 43 41 40 39 38 37 37 38 39 40 41 43 44 44 44 44 46 45
67 67 66 66 66 66 66 66 66 66 66 66 65 65 64 64 64 63 63 62 61 60 59 58 57 56 55 53 52 51 51 51 51 51 51 50 49 49 49 48 47 48 48 47 47 48 48 48 48 48 48 49 49 50 49 48 48 47 47 47 46 45 44 44 43 41 38 36 34 34 33 34 34 34 36 37 38 40 41 42 41 40 41 43 42
67 67 67 68 68 68 68 68 68 68 68 68 67 67 66 66 65 64 64 64 62 61 60 59 58 57 56 54 53 52 51 51 51 51 50 48 47 47 47 46 46 47 47 47 47 49 49 48 48 48 48 48 48 48 47 45 44 44 43 43 42 42 41 40 38 36 33 31 30 31 31 32 33 34 35 36 37 38 39 38 37 36 37 39 37
69 70 71 71 71 71 71 70 70 70 69 69 68 68 67 67 66 65 65 64 63 62 61 59 59 58 56 55 54 53 52 52 52 52 51 49 48 48 48 47 47 48 48 48 48 49 49 48 48 48 48 48 46 45 43 42 41 40 40 39 39 38 38 36 34 32 30 29 29 29 29 31 32 33 34 34 34 35 35 34 33 33 33 33 32
71 71 71 71 70 70 69 69 68 68 68 67 67 66 66 66 66 65 64 64 64 63 61 60 59 58 56 55 54 53 52 52 53 53 52 51 50 49 49 49 49 49 48 47 48 48 48 48 48 47 47 45 43 41 40 39 38 37 36 36 35 35 33 32 30 29 28 28 27 27 27 29 30 32 33 32 32 32 32 31 31 30 29 28 26
68 68 68 68 68 68 68 67 67 67 66 66 65 64 63 63 63 63 63 63 62 61 61 60 59 58 56 54 52 51 51 51 51 52 51 51 50 49 48 49 49 48 46 45 46 47 46 46 46 46 44 42 39 37 37 36 35 34 33 33 32 31 30 28 27 26 26 26 26 26 26 27 28 30 30 30 29 29 28 28 28 27 25 24 22
66 66 66 67 67 67 66 66 65 65 65 64 63 62 61 60 60 60 61 61 60 59 59 58 58 57 56 54 52 50 49 48 49 49 49 48 48 47 47 46 46 46 45 44 44 45 45 45 44 42 40 37 35 34 33 32 32 31 30 30 29 28 26 25 24 24 24 25 25 25 25 25 26 27 27 27 26 25 25 25 24 23 21 20 20
66 66 66 66 65 65 65 64 64 63 63 62 61 60 60 59 58 57 57 58 58 58 57 56 55 55 54 52 51 49 47 47 46 46 46 46 46 45 43 43 43 45 45 44 43 43 43 42 40 37 35 33 31 30 30 30 29 28 27 27 26 25 23 22 22 22 23 24 24 23 23 23 24 24 24 23 23 22 22 22 21 20 19 19 19
65 65 66 65 65 64 64 63 62 61 60 59 58 57 57 56 56 54 54 54 54 55 55 54 53 52 51 50 49 47 46 45 45 45 45 46 45 43 41 42 43 44 44 43 41 40 39 37 35 32 30 29 28 28 28 28 26 25 25 24 23 21 21 21 20 20 21 22 22 21 21 21 21 21 21 20 20 19 19 19 19 19 18 18 18
64 65 65 65 64 62 61 60 59 57 56 55 54 54 53 52 52 51 50 50 49 50 51 51 51 50 49 47 46 45 44 44 43 43 43 44 43 41 40 41 42 42 42 40 38 36 34 33 30 27 26 26 26 25 25 25 24 23 22 21 20 19 19 19 19 19 19 20 19 19 19 19 19 18 18 18 17 17 17 17 17 17 17 16 17
63 62 62 61 59 58 57 56 55 53 52 51 50 49 49 48 48 47 46 46 45 45 45 46 47 47 46 45 43 42 41 41 40 40 40 40 38 37 38 38 38 38 37 35 33 31 30 28 26 24 23 23 23 23 23 22 21 21 20 19 18 18 18 17 17 17 17 17 17 17 17 16 16 15 15 15 15 14 14 15 15 15 15 15 15
60 59 58 56 55 54 53 52 51 50 48 47 46 45 44 43 43 42 42 41 41 40 40 40 41 41 42 41 40 39 38 38 37 36 36 35 34 33 33 34 33 32 31 30 29 27 25 23 22 21 21 21 21 21 20 20 19 19 18 17 17 17 16 16 15 15 15 16 16 15 15 14 14 13 13 13 13 12 12 13 13 13 13 13 13
57 55 54 53 52 51 49 48 47 46 44 43 41 40 39 38 38 37 36 36 35 35 35 35 35 35 36 36 35 34 33 33 33 32 32 30 29 28 28 28 28 27 27 26 24 23 21 19 18 19 19 19 19 18 18 17 17 17 17 17 16 15 15 14 14 13 14 15 15 14 13 13 12 11 11 11 11 11 11 11 11 11 11 11 12
53 52 51 50 49 48 47 45 43 41 39 38 36 35 34 33 32 32 31 30 30 29 29 29 29 29 30 30 29 28 27 27 27 27 26 25 24 23 24 24 23 23 23 21 20 18 17 15 15 16 17 17 17 16 15 15 16 16 16 16 15 14 13 13 12 12 13 14 14 14 13 12 11 11 10 10 10 9 9 9 9 9 9 10 10
50 49 49 48 47 45 43 41 39 37 35 33 31 30 29 28 27 26 26 25 24 24 23 23 24 24 24 24 23 22 21 20 20 20 19 18 18 18 18 19 19 19 18 16 15 13 13 13 13 15 15 15 14 13 13 14 15 15 15 14 13 12 12 12 11 11 12 13 13 13 13 12 11 11 11 10 9 9 9 9 9 9 9 9 9
47 46 46 45 43 41 40 38 35 33 31 29 27 26 24 23 22 21 21 20 19 19 18 18 18 18 18 17 17 16 14 13 13 12 12 12 12 13 13 14 14 14 12 11 10 10 10 11 12 12 12 12 11 11 12 13 14 14 13 12 11 11 11 11 11 11 11 12 13 13 13 12 12 11 11 11 10 10 9 9 9 9 9 9 9
45 44 43 42 40 38 36 34 32 30 29 27 25 23 21 20 19 18 17 16 15 14 14 13 13 12 12 11 10 9 7 6 5 6 6 7 7 8 9 9 9 8 6 6 7 8 8 9 10 9 9 9 10 10 10 11 12 12 11 11 10 10 10 10 10 10 11 12 12 13 13 13 12 12 12 12 11 10 10 10 9 9 9 9 9
43 42 41 40 39 37 34 32 30 28 27 25 23 21 20 18 17 16 14 13 12 11 10 9 8 7 6 5 3 2 1 1 2 3 3 4 4 4 4 4 3 4 4 5 6 6 7 7 7 7 7 7 8 8 8 9 9 9 9 8 8 8 8 9 9 10 11 12 12 13 13 13 13 12 12 12 12 12 11 11 10 10 10 10 10
42 41 40 39 38 37 35 32 30 28 26 24 22 21 19 18 16 15 14 12 11 10 8 8 7 6 6 6 6 7 7 7 6 6 5 5 5 5 5 6 6 6 6 6 5 4 4 4 4 4 4 4 5 5 5 6 6 6 6 6 6 7 7 8 9 10 11 11 12 12 13 13 13 13 13 12 12 12 12 12 12 12 11 11 11
40 40 40 39 38 37 35 33 31 29 27 25 23 22 20 19 17 16 15 14 13 13 12 12 12 12 12 12 12 12 12 11 11 10 10 10 10 10 10 9 8 7 6 5 5 4 3 3 2 2 2 1 2 2 2 2 2 3 3 4 5 6 7 7 8 9 9 10 10 11 11 12 12 12 12 12 13 13 13 13 13 13 13 13 12
38 38 38 38 37 36 35 34 33 31 30 28 27 25 24 23 22 21 20 19 19 19 18 18 18 18 18 18 17 17 17 16 16 15 15 14 14 13 12 11 10 9 8 7 7 6 5 5 4 3 3 2 2 1 1 0 0 1 2 2 3 4 4 5 5 6 7 7 8 8 9 9 10 10 11 11 12 12 13 13 13 13 13 13 13
36 36 36 36 36 36 35 35 34 33 32 31 30 29 28 27 26 26 25 25 24 24 24 23 23 23 22 22 21 21 20 20 19 18 17 16 15 14 13 12 12 11 10 10 9 9 8 7 7 6 5 5 4 4 3 3 2 2 1 1 1 2 2 2 3 3 4 4 5 5 6 7 7 8 9 9 10 10 11 11 12 13 13 14 14
34 34 34 34 34 34 34 34 34 33 33 33 32 31 31 30 30 29 29 29 28 28 27 27 26 26 25 25 24 23 22 21 20 19 18 18 17 16 15 15 14 13 13 12 12 11 10 10 9 9 8 8 7 6 6 5 5 4 4 3 3 2 2 2 2 3 3 4 4 5 5 6 7 7 8 8 9 9 10 11 12 13 14 14 13
33 33 33 33 33 33 33 33 33 33 33 32 32 32 32 32 31 31 31 30 30 30 29 29 28 27 27 26 25 24 23 22 22 21 20 19 19 18 17 17 16 15 15 14 14 13 13 12 11 11 10 9 8 8 8 7 7 6 5 5 4 4 3 3 3 3 3 3 4 4 4 5 5 6 6 7 8 9 10 11 12 13 13 13 13
33 33 33 33 33 32 32 32 32 32 32 32 32 33 32 32 32 32 32 32 31 31 30 30 29 28 27 27 26 25 24 24 23 22 22 21 20 20 19 18 18 17 17 16 15 15 14 13 12 11 11 10 10 10 9 8 8 7 6 5 5 4 4 4 3 3 3 3 3 3 3 3 4 4 5 5 6 7 8 8 9 10 10 11 11
35 35 34 34 34 34 33 33 34 34 34 34 34 34 34 34 33 33 33 32 32 31 31 30 30 29 28 28 27 26 26 25 24 24 23 22 21 21 20 19 19 18 17 17 16 15 14 13 13 12 12 12 11 10 9 8 8 7 7 7 6 6 6 5 5 4 4 4 4 4 4 4 4 5 5 5 6 6 6 6 4 4 5 7 9
Wind_Direction
277 276 276 275 274 273 272 271 270 270 270 270 269 269 270 270 270 271 271 271 272 272 273 273 273 273 273 273 272 272 272 272 272 272 271 271 271 270 270 270 270 270 270 270 271 271 272 272 272 273 273 273 274 274 275 276 276 277 278 278 279 280 280 281 281 281 280 279 279 279 280 280 281 281 281 281 281 281 281 280 280 279 279 278 278
279 278 277 276 275 274 273 272 271 270 270 269 269 270 270 270 270 271 271 271 271 272 272 272 273 273 273 273 272 272 272 272 272 271 271 271 271 270 270 270 270 270 270 271 271 271 271 272 272 272 273 273 273 274 274 275 276 276 277 278 278 279 280 280 281 281 281 280 279 279 280 280 281 281 281 281 281 281 281 280 280 280 279 279 279
281 280 279 278 277 276 274 273 272 271 270 270 269 269 269 269 270 270 270 270 271 271 271 271 272 272 272 272 272 272 272 272 272 272 272 271 271 271 270 270 270 270 270 270 270 271 271 271 272 272 273 273 273 274 274 275 275 276 276 277 278 278 279 279 280 280 281 280 280 280 280 280 280 280 280 280 280 280 280 280 280 280 280 279 279
283 283 281 280 279 278 277 276 275 274 273 272 271 271 270 270 270 269 269 270 270 270 270 271 271 271 271 272 272 272 272 272 272 272 272 272 271 271 270 270 270 270 270 270 270 270 271 271 271 272 272 273 273 274 274 274 275 275 276 276 277 277 278 278 279 279 280 280 280 280 280 280 280 280 280 280 280 280 280 280 280 280 280 280 279
286 285 284 283 282 281 280 279 278 277 276 275 274 273 272 271 271 271 270 270 270 270 270 270 270 271 271 271 271 271 271 271 271 271 271 271 271 270 270 270 269 269 269 269 269 269 269 270 270 271 271 272 272 272 273 273 273 274 274 275 276 276 277 277 278 278 279 279 280 280 280 280 280 280 280 280 280 280 280 280 280 280 280 280 280
287 286 286 285 284 283 282 281 280 279 278 277 276 275 274 273 272 272 271 271 271 270 270 270 270 270 270 270 270 270 271 271 271 271 270 270 270 269 269 268 268 268 268 268 268 268 268 269 269 270 270 270 271 271 271 272 272 273 274 274 275 276 276 277 277 278 278 279 279 280 280 279 279 279 279 280 280 280 280 280 280 280 280 280 279
288 287 287 286 285 284 283 282 281 280 279 278 277 276 275 274 274 273 273 272 271 271 271 270 270 270 270 270 270 270 270 270 270 270 270 270 269 269 268 268 267 267 267 267 267 267 268 268 268 269 269 270 270 270 271 271 272 272 273 274 274 275 276 277 277 278 278 278 279 279 279 279 279 279 279 279 279 279 280 280 279 279 279 279 278
289 288 288 286 285 284 283 282 281 280 279 278 278 277 276 276 275 274 274 273 273 272 272 271 271 271 270 270 270 270 270 270 270 270 269 269 269 269 268 268 267 267 267 267 267 267 267 268 268 269 269 270 270 270 271 271 272 272 273 274 274 275 276 276 276 277 277 277 278 278 278 279 279 279 279 279 279 279 279 279 279 278 278 278 278
290 289 289 288 287 285 284 283 282 281 279 278 277 277 276 276 275 275 274 274 274 273 273 272 272 272 271 271 270 270 270 270 269 269 269 269 268 268 268 267 267 267 267 267 267 267 267 268 268 269 269 269 270 270 271 271 272 272 273 273 274 275 275 275 275 276 276 276 277 277 278 278 278 278 278 278 278 279 279 278 278 278 278 278 278
291 290 289 288 287 286 285 284 283 282 280 279 278 277 276 276 275 275 274 274 274 273 273 273 272 272 272 271 271 270 270 269 269 269 269 268 268 268 267 267 267 267 267 267 267 267 267 267 268 268 269 269 269 270 271 271 272 272 273 273 273 274 274 274 274 275 275 276 276 277 277 277 277 278 278 278 278 278 278 278 278 278 278 278 278
292 291 290 289 288 287 286 285 284 282 281 280 279 279 278 277 276 276 275 274 274 273 273 272 272 272 271 271 271 271 270 270 269 269 269 268 268 268 267 267 267 267 267 267 267 267 267 267 268 268 268 269 269 270 270 271 271 272 272 272 273 273 274 274 274 275 275 275 276 276 277 277 277 278 278 278 278 278 278 278 278 278 278 278 278
293 292 291 290 289 288 286 285 284 283 282 281 280 279 278 278 277 276 276 275 274 274 273 273 272 272 271 271 271 271 270 270 270 270 269 269 269 268 268 268 268 268 268 268 268 268 268 268 268 268 269 269 270 270 270 271 271 272 272 273 273 273 274 274 275 275 275 276 276 276 277 277 278 278 278 279 278 278 278 278 278 278 278 278 278
293 292 291 290 289 288 286 285 284 283 282 281 281 280 279 278 278 277 276 276 275 275 274 274 273 273 272 272 271 271 271 270 270 270 270 270 269 269 269 269 269 268 268 268 268 268 268 268 268 269 269 269 270 270 271 271 272 272 272 273 273 274 274 275 275 276 276 277 277 277 277 278 278 278 278 278 278 278 278 278 278 278 278 277 277
293 292 291 290 289 288 286 285 285 284 283 282 281 280 280 279 278 278 277 277 276 276 276 275 275 274 274 273 273 272 272 271 271 271 271 270 270 270 270 270 270 270 269 269 269 269 269 269 269 269 270 270 270 271 271 272 272 273 273 273 274 274 275 275 276 277 277 277 278 278 278 278 278 278 278 278 278 278 278 278 278 277 277 277 277
293 292 291 290 289 287 286 286 285 284 283 282 281 281 280 280 279 278 278 278 277 277 277 276 276 275 275 274 274 273 273 273 272 272 272 271 271 271 271 271 271 271 271 271 271 271 271 271 271 271 271 271 272 272 273 273 274 274 274 274 274 275 275 276 276 276 277 277 278 278 278 278 278 278 278 278 277 277 277 277 277 277 277 277 277
293 292 291 290 289 288 287 286 284 284 283 282 281 281 280 280 279 279 278 278 278 277 277 276 276 276 275 275 274 274 274 273 273 273 272 272 272 272 272 272 272 272 272 272 272 272 272 273 273 273 273 273 274 274 275 275 275 274 274 274 275 275 275 275 276 276 277 277 278 278 278 278 278 278 278 278 277 277 277 277 277 277 277 277 277
293 292 291 290 289 288 287 286 285 284 283 283 282 281 281 280 280 279 279 278 278 277 277 277 276 276 275 275 274 274 274 273 273 273 273 273 273 273 273 273 273 273 273 273 273 273 274 274 274 274 274 274 275 275 275 275 275 275 275 274 274 274 275 275 276 276 277 277 277 278 278 278 278 278 278 278 277 278 277 277 277 276 276 276 275
293 292 291 290 289 288 287 287 286 285 284 284 283 282 282 281 281 280 280 279 278 278 277 277 276 276 275 275 274 274 273 273 273 273 273 273 273 273 273 273 273 273 273 273 273 274 274 274 275 275 275 275 275 275 275 275 275 275 275 274 274 275 276 276 275 275 276 276 276 276 276 276 276 276 276 276 276 277 276 276 276 276 276 275 275
293 292 291 290 289 289 288 287 287 286 285 284 284 283 282 282 281 280 280 279 279 278 277 277 276 276 276 275 275 274 274 273 273 273 274 274 274 274 274 274 274 274 274 274 274 274 275 275 275 276 276 276 275 275 275 275 275 275 274 275 277 277 276 275 275 275 275 275 275 275 274 275 274 274 274 274 274 274 274 274 275 275 275 275 276
293 292 291 291 290 289 289 288 287 286 286 285 284 284 283 282 281 281 280 279 279 278 278 277 277 276 276 275 275 275 274 274 274 274 274 274 274 274 274 274 274 274 274 274 275 275 276 276 276 276 276 276 276 276 276 276 275 275 276 278 278 277 276 276 276 276 275 275 274 273 273 273 273 273 273 272 272 272 272 272 273 274 274 275 276
293 293 292 292 291 290 289 289 288 287 286 286 285 284 283 283 282 281 280 280 279 279 278 277 277 276 276 276 275 275 275 274 274 274 274 274 274 274 274 274 274 274 274 275 275 276 276 276 276 276 277 277 277 277 276 276 276 277 278 278 277 276 277 277 277 276 275 275 274 274 273 272 272 272 272 272 271 271 270 271 271 272 273 274 274
294 294 293 293 292 291 291 290 289 288 288 287 286 285 284 283 283 282 281 280 280 279 279 278 278 277 276 276 276 275 275 275 274 274 274 274 274 275 275 275 275 275 275 275 276 276 276 276 277 277 277 277 277 277 276 276 277 278 278 278 277 277 277 277 277 276 276 275 275 275 274 273 272 271 271 271 271 270 269 269 270 271 271 272 273
296 295 295 294 294 293 293 292 292 291 290 289 288 287 286 286 285 284 283 282 281 280 280 279 279 278 277 277 276 276 276 275 275 275 274 274 274 275 275 275 275 275 276 276 276 276 276 277 277 277 277 277 277 276 276 277 278 278 277 277 277 278 278 278 278 277 277 276 276 275 274 273 272 271 271 270 269 268 268 268 268 268 269 270 272
298 297 297 296 296 295 295 295 294 293 293 292 291 291 290 289 288 287 286 285 284 283 282 281 280 280 279 278 278 277 277 276 276 275 275 275 275 275 275 276 276 276 277 277 277 276 276 277 277 277 277 277 277 277 278 278 277 277 276 277 277 278 279 279 279 278 278 277 276 275 274 273 272 271 270 269 268 267 267 267 266 267 267 268 271
300 299 299 298 297 297 296 296 295 295 294 293 293 292 291 290 290 289 288 287 286 286 285 284 283 282 281 280 279 279 278 278 277 276 276 276 275 275 276 276 277 278 278 277 277 277 277 277 277 278 278 278 278 279 278 278 277 276 276 276 277 278 279 279 279 279 278 277 276 275 273 272 270 269 268 267 267 266 266 266 266 267 268 269 271
301 300 299 299 298 297 297 296 295 295 294 293 292 292 291 290 289 288 288 287 286 286 285 285 284 283 283 282 281 280 279 279 278 277 277 276 277 277 277 277 277 278 278 278 277 277 277 277 278 279 280 280 280 279 278 277 277 276 276 276 277 278 278 278 278 278 278 277 276 273 271 270 268 267 267 266 266 266 266 266 267 268 269 270 271
301 300 299 298 298 297 296 295 294 294 293 292 291 291 290 289 288 287 286 286 285 284 284 283 283 282 282 281 281 280 279 279 278 277 277 277 277 277 277 277 277 277 277 278 278 277 277 278 279 280 281 282 281 280 279 277 276 275 276 277 277 278 278 278 278 278 278 276 274 272 271 270 269 268 267 266 266 266 267 268 269 269 269 270 271
301 300 299 298 298 297 296 295 294 293 292 291 290 289 289 288 287 286 286 285 284 283 283 282 281 281 280 280 279 279 279 278 277 277 277 276 276 276 276 276 276 276 277 277 278 278 278 279 280 281 282 283 282 280 278 276 275 274 275 276 277 277 277 278 278 277 276 274 273 273 272 271 271 269 268 268 268 268 270 271 271 270 269 269 271
302 301 300 299 298 297 296 295 294 293 292 291 290 289 288 287 286 286 285 284 284 283 282 281 280 280 279 279 278 277 277 277 276 276 276 275 275 275 275 276 275 275 276 276 277 278 279 280 281 282 283 282 281 278 276 274 273 273 273 274 275 276 276 276 276 276 276 276 274 273 272 271 271 270 270 270 270 271 272 273 273 271 269 270 271
303 302 301 300 299 299 298 296 295 294 293 292 290 289 289 288 287 285 284 284 283 283 282 281 280 279 278 278 277 277 276 275 275 275 275 275 274 274 275 275 274 274 275 276 276 277 278 279 281 282 282 281 279 276 274 272 271 272 273 274 274 274 274 274 276 278 278 278 276 274 272 271 270 271 271 272 273 273 274 273 273 272 271 271 271
304 303 302 301 300 299 298 297 296 294 293 292 291 290 289 288 287 286 285 283 283 282 281 281 280 279 278 277 277 276 276 275 274 274 275 275 274 274 274 274 274 274 275 275 275 276 278 279 280 281 280 278 276 273 271 270 270 271 272 272 272 271 271 273 276 278 278 278 277 276 274 273 272 272 273 275 275 275 275 274 273 273 272 272 269
305 304 303 302 301 300 299 298 296 295 293 292 291 290 288 287 286 285 285 284 283 282 281 280 279 279 278 277 276 275 275 275 274 274 274 274 274 273 273 274 274 275 275 275 275 277 278 279 279 279 278 275 272 270 268 268 268 270 270 269 269 269 272 275 276 277 276 277 278 278 276 275 274 274 275 276 276 275 274 273 272 272 270 269 266
307 306 305 304 303 302 300 299 297 296 294 293 291 290 289 287 285 284 283 283 283 282 281 281 280 279 279 278 277 275 274 274 274 273 273 273 273 273 274 274 274 275 275 276 277 277 278 278 277 276 273 271 268 266 265 266 267 268 267 266 266 269 273 275 274 274 276 277 279 279 278 277 275 275 275 275 274 273 271 270 269 269 267 265 263
310 309 308 307 305 304 302 301 299 298 296 295 293 292 290 288 286 285 283 282 282 282 281 281 280 279 279 278 277 276 275 273 272 271 272 272 272 273 273 273 273 275 276 276 276 276 276 276 274 272 269 266 264 263 263 265 266 266 264 263 266 270 272 273 273 275 277 279 280 280 279 277 275 275 274 273 272 270 268 267 266 265 264 263 261
312 311 310 309 308 306 305 304 302 301 299 297 296 294 293 291 289 287 285 283 282 281 281 280 280 279 278 278 277 276 274 273 272 271 270 271 272 272 272 272 272 273 274 275 276 275 274 273 271 267 263 261 260 260 262 263 264 262 261 263 267 269 270 271 274 276 278 279 280 280 278 277 276 274 273 271 269 267 266 265 264 263 261 259 257
314 313 312 311 309 308 307 305 304 303 301 299 298 296 295 293 292 290 288 286 284 282 281 280 280 279 279 278 276 275 274 273 272 271 270 271 271 271 270 271 271 272 273 274 275 273 272 270 266 262 258 256 257 258 260 261 260 259 260 263 266 267 268 270 273 276 277 278 280 279 278 277 276 273 271 268 267 265 263 262 260 258 257 255 252
316 315 314 313 312 311 310 308 306 305 303 301 300 298 296 295 293 292 290 289 287 285 283 282 281 280 279 278 277 275 274 273 272 271 271 270 270 269 269 270 271 271 272 272 272 270 268 264 259 255 253 253 254 256 257 258 257 258 260 262 264 265 267 269 271 274 276 277 278 279 279 278 275 273 269 267 265 263 260 258 256 255 254 252 250
320 319 318 317 316 315 314 312 310 308 307 305 302 300 298 297 295 294 292 291 289 288 286 285 283 282 281 280 279 277 275 274 272 271 270 269 268 267 267 268 268 269 269 269 268 267 264 257 250 247 248 250 252 254 255 255 255 257 259 261 263 264 265 266 268 270 273 275 277 279 279 278 276 272 268 266 264 261 258 257 256 255 254 252 251
325 324 323 323 322 320 318 317 315 313 311 310 307 305 302 300 298 296 295 294 292 291 289 287 285 284 283 282 281 280 277 275 272 270 269 267 266 264 264 264 265 265 266 266 264 261 255 247 241 241 244 248 251 252 251 252 254 256 259 261 263 263 262 262 264 266 270 273 276 278 279 278 275 272 269 266 264 261 258 257 256 255 254 252 251
330 329 329 328 327 325 324 323 322 320 318 316 314 312 309 306 303 301 299 298 297 294 292 289 287 285 284 283 283 282 280 277 273 269 267 264 262 259 259 260 260 261 261 261 256 249 241 235 234 238 243 248 250 250 249 250 253 257 261 263 263 261 259 259 261 264 268 272 275 277 279 278 275 273 271 268 265 264 261 259 258 256 254 252 251
336 336 335 335 334 332 331 330 329 328 327 326 324 321 318 314 311 309 307 305 302 299 296 293 290 288 287 287 286 286 283 278 272 266 261 257 253 252 252 253 255 256 256 250 239 229 225 226 231 238 244 247 248 248 249 251 255 259 262 263 260 257 257 259 262 266 269 271 272 275 277 276 274 272 271 270 268 267 266 265 264 262 260 258 256
343 343 343 343 342 341 340 339 338 338 337 337 335 334 331 328 325 322 319 316 313 309 306 302 299 297 296 295 293 291 288 278 262 250 242 239 239 240 242 245 247 244 234 219 209 207 213 221 230 237 241 245 248 250 251 254 257 261 262 260 258 258 260 263 267 269 269 268 268 269 271 272 272 270 270 270 270 269 268 268 267 266 264 263 261
351 351 351 352 352 352 351 350 350 349 349 349 348 348 347 345 343 341 339 336 334 331 328 325 324 324 326 327 330 345 34 123 152 171 186 196 205 210 212 210 198 180 172 175 183 194 206 217 226 234 240 245 248 251 253 255 258 261 262 262 262 264 266 268 269 268 266 264 263 264 265 267 268 268 268 269 269 269 268 267 265 264 262 261 260
358 359 360 1 2 3 3 3 2 2 2 2 2 2 3 3 3 4 4 5 6 8 12 18 26 38 51 63 74 84 92 101 109 115 121 124 124 124 125 126 128 133 142 152 164 177 189 200 211 222 231 239 246 250 254 258 261 264 265 267 268 269 270 269 268 266 265 263 262 262 264 266 267 269 269 269 269 269 268 266 264 262 260 257 255
4 6 8 9 10 12 13 14 15 16 16 17 18 19 21 23 25 28 31 35 40 46 52 59 65 70 75 80 84 88 91 94 97 98 99 100 102 105 108 113 117 120 124 128 130 131 135 144 156 173 191 214 235 249 258 261 265 268 271 273 274 274 274 273 272 270 269 268 267 267 268 269 270 270 270 270 269 268 267 266 265 263 260 258 255
9 11 13 16 18 20 22 23 25 27 29 31 33 36 38 41 44 47 51 55 60 64 68 71 74 77 80 83 85 87 89 90 91 93 94 96 99 101 103 105 105 104 103 103 103 104 105 106 106 105 103 102 97 91 80 58 325 301 291 287 285 284 283 281 278 277 276 275 274 273 272 272 272 272 273 272 272 270 269 268 266 263 261 258 255
11 14 17 20 23 25 28 31 33 36 38 41 43 46 49 52 55 58 62 65 68 71 73 76 78 80 82 83 85 86 87 89 90 91 93 94 94 94 94 94 93 93 93 94 94 95 94 94 93 92 90 86 84 80 76 71 65 54 37 15 348 324 309 301 296 293 292 289 286 285 285 284 283 283 282 281 278 275 271 268 265 261 257 254 250
15 17 19 22 25 28 32 35 38 41 44 47 50 53 55 58 61 64 66 69 71 73 75 77 78 80 81 83 84 85 86 87 88 88 88 88 88 87 88 88 89 89 90 91 90 90 89 88 86 85 83 81 79 77 74 72 68 63 59 54 46 35 18 2 345 329 316 309 304 301 298 295 293 290 288 285 282 279 274 270 265 260 255 251 246
18 21 23 26 28 31 34 37 40 43 46 50 53 55 58 61 63 66 68 70 72 74 76 77 79 80 81 82 83 83 83 83 83 83 84 84 85 85 86 87 88 88 88 88 87 86 85 84 82 80 78 76 74 73 72 70 68 64 60 54 45 34 24 10 356 344 330 321 315 312 307 303 300 299 297 296 293 290 285 278 270 261 254 246 239
24 26 28 31 33 36 39 41 44 47 50 52 55 58 60 63 65 67 69 71 73 74 75 76 77 78 78 79 79 80 80 81 81 82 83 83 84 85 86 86 86 86 86 85 84 83 81 79 76 75 75 75 76 75 73 69 65 59 52 46 41 37 34 31 27 20 13 4 356 351 345 338 331 327 322 319 314 309 302 292 277 261 247 233 222
32 34 35 37 39 42 44 47 49 52 54 57 59 61 63 65 67 68 70 71 72 73 73 74 75 75 76 77 78 79 80 80 81 82 83 83 83 84 84 84 84 84 84 82 80 78 76 76 77 78 79 79 76 72 67 61 57 55 54 54 53 51 49 47 44 40 37 34 30 26 22 15 7 359 353 348 344 340 333 321 297 251 214 197 190